This is the latest recevied weather packets stored in our database for station/object KQ4LLM. If no packets are shown the sender has not sent any weather packets the latest 10 day(s).
| Time | Temp. | Humidity | Pressure | Rain* | Wind** | Luminosity | Snow |
|---|---|---|---|---|---|---|---|
| 1777712496 | 12.78° C | 94% | - | 0 mm | - | - | - |
| 1777712192 | 12.78° C | 93% | - | 0 mm | - | - | - |
| 1777711889 | 13.33° C | 93% | - | 0 mm | - | - | - |
| 1777711586 | 13.33° C | 93% | - | 0 mm | - | - | - |
| 1777711281 | 13.33° C | 94% | - | 0 mm | - | - | - |
| 1777710978 | 13.33° C | 93% | - | 0 mm | - | - | - |
| 1777710675 | 13.33° C | 93% | - | 0 mm | - | - | - |
| 1777710373 | 13.89° C | 92% | - | 0 mm | - | - | - |
| 1777710069 | 13.89° C | 91% | - | 0 mm | - | - | - |
| 1777709767 | 13.89° C | 91% | - | 0 mm | - | - | - |
| 1777709463 | 13.89° C | 90% | - | 0 mm | - | - | - |
| 1777709161 | 13.89° C | 90% | - | 0 mm | - | - | - |
| 1777708859 | 13.89° C | 89% | - | 0 mm | - | - | - |
| 1777708556 | 13.89° C | 88% | - | 0 mm | - | - | - |
| 1777708254 | 14.44° C | 86% | - | 0 mm | - | - | - |
| 1777707952 | 14.44° C | 85% | - | 0 mm | - | - | - |
| 1777707647 | 14.44° C | 85% | - | 0 mm | - | - | - |
| 1777707337 | 14.44° C | 86% | - | 0 mm | - | - | - |
| 1777707035 | 14.44° C | 85% | - | 0 mm | - | - | - |
| 1777706732 | 15° C | 83% | - | 0 mm | - | - | - |
| 1777706430 | 14.44° C | 83% | - | 0 mm | - | - | - |
| 1777706127 | 14.44° C | 86% | - | 0 mm | - | - | - |
| 1777705826 | 13.89° C | 86% | - | 0 mm | - | - | - |
| 1777705524 | 13.89° C | 86% | - | 0 mm | - | - | - |
| 1777705221 | 13.89° C | 88% | - | 0 mm | - | - | - |
* Rain latest hour (hover to see other rain measurements)
** Current wind speed in m/s (hover to see current wind gust speed)